Location: *
(51.5000°N, 0.1100°W)
Time: 17:46:26
(UTC+00:00)

Resurs 1-4 Rocket - Pass Details

Date: 25 May 2024
Orbit: 798 x 813 km, 98.7° (Epoch: 16 June)

Event Time Altitude Azimuth Distance (km) Brightness Sun altitude
Rises 02:54:56 0° 11° (N) 3,320 6.5 -7.7°
Reaches altitude 10° 02:57:21 10° 5° (N) 2,385 5.5 -7.5°
Maximum altitude 03:02:20 45° 295° (WNW) 1,084 2.7 -7.0°
Drops below altitude 10° 03:07:18 10° 224° (SW) 2,371 3.8 -6.4°
Enters shadow 03:07:49 - 222° (SW) 2,567 4.0 -6.4°
